Wind_Speed
16 16 17 18 18 19 20 21 21 22 22 23 24 24 24 25 25 26 26 26 26 27 27 27 27 26 26 26 26 26 26 26 26 26 26 26 25 25
17 17 17 18 19 20 21 21 22 22 22 23 24 24 24 25 26 26 27 27 27 28 28 27 27 28 27 28 28 28 27 27 27 27 27 28 27 26
18 18 18 18 19 20 21 22 23 23 23 24 25 26 26 26 27 27 28 28 28 28 28 28 29 29 29 29 29 29 29 29 29 29 29 28 28 26
18 19 19 20 20 20 21 22 23 24 25 25 26 26 27 28 28 28 28 28 28 28 28 29 29 30 30 30 30 30 30 30 29 29 29 29 28 27
20 20 21 21 21 22 22 22 23 24 25 26 27 27 27 28 29 29 29 29 29 29 29 29 30 30 31 31 31 31 32 31 30 30 30 29 29 28
21 21 22 22 21 22 23 23 24 25 25 26 27 27 27 27 28 29 29 30 29 30 29 30 30 30 31 31 31 32 32 32 31 31 30 30 29 29
22 22 22 23 23 23 23 24 25 25 26 27 27 27 28 28 29 29 29 30 31 31 31 31 31 31 31 31 31 32 32 32 31 31 31 31 30 30
22 22 22 23 23 24 24 24 25 26 26 26 26 26 27 27 28 28 28 29 30 31 32 32 32 32 32 32 32 32 31 31 31 31 32 31 31 30
22 22 23 23 23 24 24 25 26 26 26 26 26 26 26 27 27 27 28 29 29 30 31 31 32 32 32 32 32 32 32 32 32 32 32 32 31 31
23 24 24 23 23 24 25 25 25 26 25 25 25 26 26 26 27 27 27 28 28 29 30 31 32 32 32 32 32 31 31 31 32 32 32 32 32 31
24 24 25 25 25 25 25 26 26 26 26 25 25 25 25 26 26 27 27 27 28 29 30 31 32 33 32 32 32 32 31 31 31 31 31 32 31 31
25 25 25 25 25 25 25 26 26 26 26 25 26 26 26 26 26 27 27 27 28 28 28 29 30 31 31 31 31 31 31 31 31 31 31 31 31 31
25 25 25 25 25 25 25 26 26 26 26 26 26 26 26 26 27 26 26 27 27 27 27 27 27 27 28 28 28 29 29 30 30 30 31 31 30 30
26 26 26 26 27 26 26 26 27 26 26 26 26 26 26 27 27 26 26 26 26 27 26 26 25 25 26 26 27 27 27 28 28 29 29 30 29 29
26 26 26 26 27 27 27 26 26 26 25 25 25 25 25 26 26 25 25 25 25 25 24 24 24 24 25 25 26 26 26 26 27 28 28 29 28 28
26 26 27 27 27 27 26 26 26 25 25 25 25 24 25 25 24 24 24 24 24 23 23 23 23 23 24 25 26 26 27 27 27 27 27 27 28 27
26 27 27 27 27 27 26 26 25 25 25 24 23 23 23 23 22 22 22 22 22 22 22 21 21 22 21 22 23 24 25 26 25 25 26 26 27 27
25 26 26 26 26 26 25 24 24 24 23 22 22 22 22 21 21 21 21 22 21 21 21 20 21 21 21 21 21 22 23 23 23 23 24 25 25 26
25 25 25 25 25 25 25 24 24 24 23 22 22 22 22 22 22 21 21 21 21 20 20 20 20 20 20 20 20 20 21 21 22 22 24 24 24 24
25 25 25 25 25 25 25 24 24 23 22 23 23 22 22 22 22 22 21 20 20 19 18 18 18 19 19 20 20 19 20 20 21 20 21 22 22 23
25 25 25 25 25 25 24 24 23 23 23 22 22 22 21 22 22 21 20 20 19 19 18 18 18 18 19 19 19 19 19 19 19 20 21 21 21 21
24 25 25 25 25 24 24 24 24 24 23 22 22 21 21 21 21 21 20 20 19 18 18 18 18 18 18 18 18 19 19 19 19 19 20 20 20 20
25 24 24 24 24 24 24 24 23 23 22 22 21 21 21 21 21 20 20 20 20 19 18 18 18 18 19 19 19 19 19 18 18 18 19 20 20 19
Wind_Direction
292 287 282 278 273 270 269 268 269 270 269 269 268 268 269 268 270 270 270 269 267 268 267 266 263 262 261 262 262 262 262 261 261 262 264 264 263 262
295 292 287 283 279 277 274 272 271 270 270 271 271 270 271 270 270 271 271 270 270 267 266 266 264 262 262 262 261 261 261 261 262 264 265 264 264 265
293 291 288 286 283 281 279 277 275 272 272 272 273 271 270 271 271 272 271 270 270 267 265 265 265 263 262 261 261 260 260 261 262 264 264 264 264 264
293 292 289 287 285 283 283 280 278 276 275 274 274 273 272 272 272 272 270 270 269 268 266 266 266 264 262 261 261 260 260 261 263 264 264 262 262 262
290 289 289 288 288 286 285 284 283 282 279 276 274 274 273 273 272 272 271 270 269 268 267 267 268 266 263 261 261 262 260 259 261 262 262 260 260 259
290 288 288 288 288 288 287 285 285 285 283 281 277 275 274 274 273 272 272 270 269 269 269 268 268 269 266 264 263 262 260 258 259 260 260 259 259 259
291 289 288 287 287 288 288 287 286 287 285 283 280 277 276 275 273 273 272 271 270 269 268 268 269 269 268 266 265 262 261 258 258 258 259 259 258 257
290 290 289 287 286 287 288 288 288 287 287 286 283 280 279 278 278 277 274 272 270 269 269 268 269 269 268 267 265 263 262 259 258 258 259 259 258 257
292 292 292 290 288 288 287 287 289 288 287 287 285 283 283 281 280 281 277 273 271 270 269 268 268 268 267 267 264 263 262 260 259 259 259 259 257 257
295 294 293 291 289 289 290 291 290 288 289 289 287 286 284 284 284 282 281 277 274 273 270 268 268 268 266 265 263 261 261 260 259 257 257 257 256 255
295 294 294 294 293 292 292 293 292 290 289 288 287 286 284 284 284 283 282 281 279 276 273 271 270 268 266 263 262 261 260 259 257 256 257 257 255 254
297 296 295 294 294 294 294 294 294 293 290 289 288 286 285 284 284 283 281 281 281 280 277 274 271 268 265 262 261 260 258 257 256 256 256 256 255 252
298 297 296 295 295 295 295 295 294 293 292 289 288 286 285 285 284 283 282 281 280 280 278 275 270 267 264 262 261 259 257 256 255 255 255 254 253 251
297 297 297 296 296 297 296 295 293 294 293 291 289 287 286 284 283 282 283 282 280 279 277 274 269 266 264 262 260 258 257 255 255 255 255 253 250 250
297 297 297 297 297 296 296 294 293 293 293 292 290 288 287 286 283 283 284 283 282 281 278 272 268 264 262 261 261 259 257 255 255 255 255 252 248 247
296 296 296 297 298 297 296 294 293 292 293 292 290 288 287 285 284 284 285 285 282 281 278 273 268 265 262 261 260 258 257 257 257 256 254 250 246 246
298 298 297 297 298 300 298 296 295 293 292 290 289 287 285 284 284 284 285 286 283 280 278 274 269 265 263 261 260 257 256 257 257 256 252 249 246 245
299 299 298 299 299 301 300 297 296 294 292 290 288 286 285 284 284 284 285 286 284 282 280 274 269 265 262 257 257 258 256 256 254 254 251 246 245 243
301 300 300 300 300 300 300 298 296 295 291 289 287 286 285 285 285 284 285 284 283 283 280 274 269 266 263 260 259 259 258 254 253 253 247 244 245 243
301 300 300 300 300 300 299 298 297 295 292 290 287 286 285 284 283 283 284 284 283 281 279 275 270 266 262 261 259 259 259 256 253 251 247 244 244 242
302 301 300 300 300 299 297 298 297 295 292 290 289 287 285 285 283 280 280 281 280 279 278 275 271 269 265 262 259 258 256 254 252 250 246 244 243 242
302 302 301 301 299 298 298 298 298 296 293 291 289 288 286 285 283 280 278 279 277 277 277 275 269 268 266 263 262 260 258 255 253 249 245 243 243 241
302 302 301 300 300 298 297 297 297 297 295 292 291 288 286 284 282 281 279 276 277 277 277 273 268 265 265 263 261 259 257 256 255 250 247 244 242 241
Height
5828 5826 5825 5825 5824 5824 5823 5823 5823 5823 5823 5822 5822 5822 5821 5821 5821 5821 5820 5820 5820 5820 5820 5821 5821 5822 5823 5823 5824 5825 5826 5827 5828 5829 5829 5830 5830 5831
5823 5822 5821 5820 5819 5818 5818 5818 5817 5817 5817 5816 5815 5815 5815 5815 5814 5814 5814 5813 5813 5813 5813 5813 5814 5815 5815 5816 5817 5818 5819 5820 5821 5822 5822 5823 5823 5824
5819 5817 5816 5815 5814 5813 5813 5812 5811 5811 5810 5810 5809 5808 5808 5808 5807 5807 5806 5806 5806 5806 5806 5806 5806 5807 5807 5808 5809 5810 5811 5812 5813 5814 5815 5815 5816 5817
5814 5813 5811 5810 5809 5808 5807 5806 5805 5804 5804 5803 5802 5801 5800 5800 5799 5799 5798 5798 5797 5797 5798 5798 5798 5798 5799 5800 5801 5802 5803 5804 5805 5806 5806 5807 5808 5809
5809 5807 5806 5805 5803 5802 5801 5799 5798 5797 5796 5795 5794 5793 5792 5791 5791 5790 5790 5789 5789 5789 5789 5789 5789 5790 5790 5791 5792 5793 5794 5795 5796 5797 5798 5799 5800 5801
5803 5802 5800 5799 5797 5796 5794 5793 5792 5790 5789 5788 5786 5785 5784 5783 5782 5782 5781 5780 5780 5780 5780 5780 5780 5780 5781 5782 5783 5784 5784 5785 5787 5788 5789 5790 5792 5793
5798 5796 5794 5793 5791 5790 5788 5786 5785 5783 5782 5780 5779 5777 5776 5775 5774 5773 5772 5771 5771 5771 5771 5771 5771 5771 5771 5772 5773 5774 5775 5776 5777 5778 5780 5781 5783 5784
5791 5789 5788 5786 5785 5783 5781 5780 5778 5776 5774 5772 5771 5769 5768 5767 5766 5764 5763 5763 5762 5762 5761 5762 5761 5762 5762 5762 5763 5764 5765 5766 5767 5769 5770 5772 5774 5775
5785 5783 5781 5779 5778 5776 5774 5773 5771 5768 5767 5765 5763 5761 5760 5759 5758 5756 5754 5753 5753 5752 5751 5751 5752 5752 5752 5752 5753 5754 5755 5756 5758 5759 5760 5762 5764 5766
5779 5777 5774 5772 5770 5769 5767 5765 5763 5761 5759 5757 5755 5754 5752 5750 5749 5748 5746 5745 5744 5743 5742 5742 5742 5742 5742 5742 5743 5744 5745 5746 5748 5749 5750 5752 5754 5756
5772 5770 5768 5765 5763 5761 5759 5757 5754 5752 5750 5749 5747 5745 5744 5742 5741 5739 5738 5736 5735 5733 5732 5732 5731 5731 5731 5732 5733 5734 5735 5737 5738 5739 5741 5742 5744 5746
5766 5763 5761 5759 5756 5754 5751 5749 5746 5744 5742 5741 5739 5737 5735 5734 5732 5730 5729 5727 5726 5724 5723 5722 5721 5720 5721 5721 5722 5724 5725 5727 5728 5729 5731 5733 5734 5736
5759 5756 5754 5751 5749 5746 5743 5741 5739 5736 5734 5732 5730 5728 5727 5725 5723 5721 5720 5718 5716 5715 5714 5712 5711 5711 5711 5712 5713 5714 5716 5717 5719 5720 5721 5723 5725 5726
5752 5749 5746 5744 5741 5738 5735 5733 5731 5728 5726 5724 5722 5720 5718 5716 5714 5713 5711 5709 5707 5706 5704 5703 5703 5703 5703 5704 5705 5706 5707 5708 5709 5711 5712 5714 5715 5717
5744 5741 5738 5736 5733 5730 5728 5725 5723 5720 5718 5716 5714 5711 5709 5707 5705 5704 5702 5700 5699 5697 5696 5695 5695 5695 5695 5696 5697 5697 5698 5700 5701 5702 5703 5704 5706 5708
5736 5733 5731 5728 5725 5722 5720 5717 5715 5712 5710 5708 5705 5703 5701 5699 5697 5696 5694 5692 5691 5690 5688 5687 5687 5687 5687 5687 5688 5689 5690 5691 5693 5694 5695 5696 5698 5700
5728 5725 5723 5720 5717 5714 5711 5708 5706 5704 5701 5699 5697 5695 5693 5691 5690 5688 5686 5684 5683 5682 5681 5679 5679 5678 5679 5679 5680 5681 5682 5683 5684 5685 5687 5688 5690 5692
5720 5717 5715 5712 5709 5706 5703 5700 5698 5695 5693 5691 5689 5687 5685 5683 5682 5680 5679 5677 5675 5674 5673 5672 5671 5671 5671 5672 5673 5673 5674 5675 5676 5677 5679 5681 5683 5685
5713 5710 5707 5704 5701 5698 5696 5693 5690 5688 5686 5683 5681 5679 5678 5676 5674 5673 5671 5669 5668 5666 5665 5664 5663 5663 5664 5665 5666 5666 5666 5667 5668 5669 5671 5673 5675 5677
5705 5702 5699 5697 5694 5691 5688 5685 5682 5680 5678 5676 5674 5672 5670 5668 5667 5665 5664 5662 5661 5659 5658 5658 5657 5656 5656 5657 5658 5659 5659 5659 5660 5662 5664 5665 5667 5670
5698 5695 5692 5689 5686 5683 5680 5678 5675 5672 5670 5668 5666 5664 5662 5661 5659 5658 5657 5655 5654 5653 5652 5651 5650 5650 5650 5650 5651 5651 5652 5652 5653 5654 5656 5658 5660 5662
5691 5688 5685 5682 5679 5676 5673 5670 5668 5665 5663 5661 5659 5657 5655 5653 5652 5650 5649 5648 5647 5646 5645 5644 5644 5644 5644 5644 5644 5645 5646 5646 5647 5648 5650 5652 5653 5655
5684 5681 5677 5674 5671 5668 5666 5663 5660 5658 5655 5653 5651 5649 5648 5646 5644 5643 5642 5641 5640 5639 5638 5637 5637 5637 5637 5638 5638 5639 5639 5641 5641 5643 5645 5646 5648 5649